Flight Track Log - Related Links

Times and Time Zones

All times are in EDT time to prevent confusion due to time zone crossing. See the BER6124 flight status page for this flight to view local times or setup timezone preferences in your user account.

Time Position Orientation Groundspeed Altitude Reporting Facility
EDT Latitude Longitude Course Direction KTS MPH feet Rate Location/Type
Wed 01:07:00 PM 49.1150 10.4637 312° West  Level Estimated
Wed 01:08:00 PM 49.1729 10.3604 311° West  Level Estimated
Wed 01:09:00 PM 49.2308 10.2567 311° West  Level Estimated
Wed 01:10:00 PM 49.2885 10.1529 310° West  Level Estimated
Wed 01:11:00 PM 49.3461 10.0487 310° West  Level Estimated
Wed 01:12:00 PM 49.4037 9.9444 310° West  Level Estimated
Wed 01:13:00 PM 49.4612 9.8398 310° West  Level Estimated
Wed 01:14:00 PM 49.5185 9.7349 310° West  Level Estimated
Wed 01:15:00 PM 49.5758 9.6298 310° West  Level Estimated
Wed 01:16:00 PM 49.6329 9.5245 310° West  Level Estimated
Wed 01:17:00 PM 49.6900 9.4189 310° West  Level Estimated
Wed 01:18:00 PM 49.7470 9.3131 310° West  Level Estimated
Wed 01:19:00 PM 49.8039 9.2070 310° West  Level Estimated
Wed 01:20:00 PM 49.8607 9.1006 310° West  Level Estimated
Wed 01:21:00 PM 49.9174 8.9940 310° West  Level Estimated
Wed 01:22:00 PM 49.9739 8.8872 309° West  Level Estimated
Wed 01:23:00 PM 50.0304 8.7801 309° West  Level Estimated
Wed 01:24:00 PM 50.0868 8.6728 309° West  Level Estimated
Wed 01:25:00 PM 50.1431 8.5652 309° West  Level Estimated
Wed 01:26:00 PM 50.1993 8.4573 309° West  Level Estimated
Wed 01:27:00 PM 50.2554 8.3492 309° West  Level Estimated
Wed 01:28:00 PM 50.3114 8.2409 309° West  Level Estimated
Wed 01:29:00 PM 50.3673 8.1322 309° West  Level Estimated
Wed 01:30:00 PM 50.4231 8.0234 309° West  Level Estimated
Wed 01:31:00 PM 50.4788 7.9143 309° West  Level Estimated
Wed 01:32:00 PM 50.5344 7.8049 309° West  Level Estimated
Wed 01:33:00 PM 50.5898 7.6952 309° West  Level Estimated
Wed 01:34:00 PM 50.6452 7.5853 309° West  Level Estimated
Wed 01:35:00 PM 50.7005 7.4752 308° West  Level Estimated
Wed 01:36:00 PM 50.7557 7.3648 308° West  Level Estimated
Wed 01:37:00 PM 50.8107 7.2541 308° West  Level Estimated
Wed 01:38:00 PM 50.8657 7.1432 308° West  Level Estimated
Wed 01:39:00 PM 50.8659 7.1427 309° West  Level Estimated
Wed 01:40:00 PM 50.8659 7.1427 140° Southeast  Level Estimated
Wed 01:41:00 PM 50.8659 7.1427 140° Southeast  Level Estimated
Wed 01:42:00 PM 50.8659 7.1427 140° Southeast  Level Estimated
Wed 01:43:00 PM 50.8659 7.1427 140° Southeast  Level Estimated
Wed 01:44:00 PM 50.8659 7.1427 140° Southeast  Level Estimated
Wed 01:45:00 PM 50.8659 7.1427 140° Southeast  Level Estimated
Wed 01:46:00 PM 50.8659 7.1427 140° Southeast  Level Estimated
Wed 01:47:00 PM 50.8659 7.1427 140° Southeast  Level Estimated
Wed 01:48:00 PM 50.8659 7.1427 140° Southeast  Level Estimated
Wed 01:49:00 PM 50.8659 7.1427 140° Southeast  Level Estimated
Wed 01:50:00 PM 50.8659 7.1427 140° Southeast  Level Estimated
Wed 01:51:00 PM 50.8659 7.1427 140° Southeast  Level Estimated
Wed 01:52:00 PM 50.8659 7.1427 140° Southeast  Level Estimated
Wed 01:53:00 PM 50.8659 7.1427 140° Southeast  Level Estimated
Wed 01:54:00 PM 50.8659 7.1427 140° Southeast  Level Estimated

Login

Don't have an account? Register now (free) for customized features, flight alerts, and more!